GW3493 Weather Reports


time (UTC)temp
C
wind
direction
speed
KPH
gust
KPH
rain 1hr
cm
rain 24hr
cm
rain mn
cm
humidity
%
barometer
mb
20260504041745 7 262 1.6 1.6 0.00 0.00 0.00 58 1011.5
20260504040703 6 265 1.6 3.2 0.00 0.00 0.00 64 1011.5
20260504035725 6 267 0.0 1.6 0.00 0.00 0.00 67 1011.5
20260504034643 6 267 0.0 1.6 0.00 0.00 0.00 67 1011.5
20260504033745 6 267 0.0 0.0 0.00 0.00 0.00 65 1011.4
20260504032643 6 267 1.6 1.6 0.00 0.00 0.00 64 1011.3
20260504031808 7 267 0.0 1.6 0.00 0.00 0.00 62 1011.5
20260504030706 7 267 0.0 0.0 0.00 0.00 0.00 62 1011.5
20260504025727 7 267 0.0 0.0 0.00 0.00 0.00 61 1011.6
20260504024644 7 267 0.0 0.0 0.00 0.00 0.00 59 1011.7
20260504023725 7 267 0.0 0.0 0.00 0.00 0.00 58 1011.8
20260504022643 8 267 0.0 0.0 0.00 0.00 0.00 55 1011.7
20260504021645 8 267 0.0 1.6 0.00 0.00 0.00 53 1011.7
20260504020806 8 267 0.0 1.6 0.00 0.00 0.00 52 1011.7
20260504015702 9 267 0.0 1.6 0.00 0.00 0.00 49 1011.7
20260504014724 9 0.0 0.0 0.00 0.00 0.00 50 1011.7
20260504013641 9 0.0 0.0 0.00 0.00 0.00 52 1011.6
20260504012702 10 267 0.0 0.0 0.00 0.00 0.00 50 1011.6
20260504011637 10 267 0.0 0.0 0.00 0.00 0.00 48 1011.5
20260504010742 10 267 0.0 0.0 0.00 0.00 0.00 48 1011.5
20260504005700 10 267 0.0 0.0 0.00 0.00 0.00 46 1011.5
20260504004722 11 267 0.0 1.6 0.00 0.00 0.00 44 1011.4
20260504003640 11 268 0.0 1.6 0.00 0.00 0.00 43 1011.4
20260504002701 11 268 0.0 0.0 0.00 0.00 0.00 42 1011.5
20260504001619 12 268 0.0 0.0 0.00 0.00 0.00 41 1011.5
20260504000744 12 267 0.0 1.6 0.00 0.00 0.00 40 1011.4
20260503235702 12 274 1.6 6.4 0.00 0.00 0.00 39 1011.4
20260503234723 13 284 1.6 4.8 0.00 0.00 0.00 38 1011.4
20260503233641 13 269 3.2 4.8 0.00 0.00 0.00 37 1011.6
20260503232703 13 266 3.2 6.4 0.00 0.00 0.00 36 1011.4
20260503231621 13 248 3.2 4.8 0.00 0.00 0.00 36 1011.6
20260503230746 13 287 4.8 14.5 0.00 0.00 0.00 36 1011.7
20260503225704 14 248 4.8 12.9 0.00 0.00 0.00 34 1011.6
20260503224726 14 267 3.2 12.9 0.00 0.00 0.00 35 1011.5
20260503223703 14 268 3.2 9.7 0.00 0.00 0.00 34 1011.6
20260503222705 14 266 3.2 9.7 0.00 0.00 0.00 35 1011.8
20260503221623 15 263 4.8 11.3 0.00 0.00 0.00 33 1011.8
20260503220808 15 245 6.4 12.9 0.00 0.00 0.00 33 1011.7
20260503215706 14 259 4.8 11.3 0.00 0.00 0.00 35 1011.7
20260503214727 14 244 4.8 9.7 0.00 0.00 0.00 34 1011.7
20260503213645 14 263 4.8 11.3 0.00 0.00 0.00 34 1011.6
20260503212706 15 260 4.8 11.3 0.00 0.00 0.00 34 1011.5
20260503211624 15 261 4.8 11.3 0.00 0.00 0.00 33 1011.6
20260503210749 15 287 4.8 6.4 0.00 0.00 0.00 34 1011.5
20260503205707 15 261 4.8 11.3 0.00 0.00 0.00 33 1011.8
20260503204748 15 247 6.4 9.7 0.00 0.00 0.00 34 1011.8
20260503203645 15 277 3.2 6.4 0.00 0.00 0.00 34 1012.2
20260503202707 14 278 4.8 14.5 0.00 0.00 0.00 35 1012.0
20260503201624 14 259 4.8 14.5 0.00 0.00 0.00 35 1012.4
20260503200749 14 261 6.4 16.1 0.00 0.00 0.00 35 1012.3
20260503195707 15 255 4.8 14.5 0.00 0.00 0.00 34 1012.6
20260503194728 15 247 4.8 14.5 0.00 0.00 0.00 34 1012.6
20260503193646 16 272 3.2 11.3 0.00 0.00 0.00 32 1012.8
20260503192708 14 250 3.2 11.3 0.00 0.00 0.00 35 1012.9
20260503191625 15 308 1.6 4.8 0.00 0.00 0.00 34 1013.0
20260503190750 15 224 4.8 11.3 0.00 0.00 0.00 34 1013.3
20260503185708 15 256 1.6 6.4 0.00 0.00 0.00 34 1013.3
20260503184730 14 263 3.2 6.4 0.00 0.00 0.00 34 1013.4
20260503183645 13 256 4.8 9.7 0.00 0.00 0.00 35 1013.6
20260503182706 14 251 4.8 9.7 0.00 0.00 0.00 34 1013.7
20260503181619 14 254 4.8 9.7 0.00 0.00 0.00 36 1013.7
20260503180744 13 309 3.2 11.3 0.00 0.00 0.00 36 1013.8
20260503175702 14 244 3.2 6.4 0.00 0.00 0.00 37 1013.9
20260503174743 13 250 3.2 16.1 0.00 0.00 0.00 35 1014.1
20260503173641 13 263 4.8 12.9 0.00 0.00 0.00 35 1014.3
20260503172703 13 282 6.4 12.9 0.00 0.00 0.00 35 1014.3
20260503171621 13 211 3.2 17.7 0.00 0.00 0.00 39 1014.4
20260503170746 13 260 4.8 11.3 0.00 0.00 0.00 36 1014.5
20260503150617 10 271 3.2 6.4 0.00 0.00 0.00 45 1015.3
20260503130620 6 264 3.2 9.7 0.00 0.00 0.00 63 1015.9
20260503110642 1 305 1.6 1.6 0.00 0.00 0.00 86 1014.9
20260503080625 1 35 0.0 1.6 0.00 0.00 0.00 84 1014.3
20260503072709 1 35 0.0 0.0 0.00 0.00 0.00 84 1013.9
20260503071710 1 35 0.0 0.0 0.00 0.00 0.00 83 1013.9
20260503070629 1 35 0.0 0.0 0.00 0.00 0.00 82 1013.9
20260503054714 1 35 0.0 0.0 0.00 0.00 0.00 85 1014.2
20260503053735 1 35 0.0 0.0 0.00 0.00 0.00 88 1014.3
20260503052713 0 0.0 0.0 0.00 0.00 0.00 89 1014.3
20260503051715 0 0.0 0.0 0.00 0.00 0.00 88 1014.5
20260503050633 1 0.0 0.0 0.00 0.00 0.00 88 1014.3
20260503045654 1 0.0 0.0 0.00 0.00 0.00 87 1014.4
20260503044716 1 0.0 0.0 0.00 0.00 0.00 86 1014.4
20260503043737 1 0.0 0.0 0.00 0.00 0.00 85 1014.3
20260503042655 1 0.0 0.0 0.00 0.00 0.00 85 1014.5